STARLINK-34157, 64084

Orbit data source: Space-Track

STARLINK-34157, 64084 is a payload satellite owned by SpaceX/Seattle (US) in LEO that was launched on Wed, 21 May 2025 UTC via an FALCON 9 launch vehicle from the Air Force Eastern Test Range (AFETR). Payload-class satellites include a variety of spacecraft equipped with specific instruments for various scientific and technological missions. These include communications satellites like Starlink; space stations such as the ISS; scientific satellites like the Hubble; Earth observation satellites from companies like Planet Labs, Umbra, and HawkEye 360; GPS; miniature CubeSats for education and research; and military/defense satellites.

Loading next visibility...
Identifier
64084, 2025-107W
Orbit
LEO
Country
Flag of USUS
Related business
Manufacturer
SpaceX/Seattle
Mission
Operational Commercial Communications
Bus & Motor
STARLINK V2MO, Unknown motor
Mass
575 kg wet, ~530 kg dry
Launch date (UTC)
2025-05-21 (1 year ago)
Launch vehicle
FALCON 9
Launch site
Air Force Eastern Test Range (AFETR)
Object type
Payload
Rocket body
Debris
Shape & HBR
Box + 2 Pan, 17.7 m
Radar Cross Section
36.964 m², Large (>1 m²)

Expand to show TLE details & history
Last TLE update: 9 hours ago

TLE from 9 hours ago
0 STARLINK-34157
1 64084U 25107W   26171.48087123  .00019651  00000-0  72178-3 0  9997
2 64084  43.0009 340.8069 0001508 257.6628 102.4055 15.27577468 61826
Epoch: 2026-06-20T11:32Z
TLE epoch observation values (Epoch: 2026-06-20T11:32:27.274Z)
Latitude
-0°
Longitude
-101.00162°
Altitude
483.055 km
Speed
7.626 km/s
True Right ascension
22h 43m 13s
True Declination
0° 00' 00"
Sunlit
Object was in daylight at epoch
Visualization orbit readout
Latitude
Unknown
Longitude
Unknown
Altitude
Unknown
Speed
Unknown
Apparent Right ascension
Unknown
Apparent Declination
Unknown
Sunlit
N/A
Visualization observer readout
Local Sidereal Time
07:19:22
Azimuth
Unknown
Elevation
Unknown
Doppler factor
Unknown
Orbital elements
Apogee altitude
486.037 km
Perigee altitude
483.967 km
Semi-major axis
6,863.139 km
Eccentricity
0.00015
Inclination
43.0009°
RAAN
340.8069°
Arg. of periapsis
257.6628°
True anomaly
102.42238°
Mean anomaly
102.4055°
Eccentric anomaly
102.41394°
Mean motion
3.81732 °/min
Orbital period
94.31 mins
BSTAR
0.00072178
Loading maneuver chart data...
Computing Atmospheric mass density...
Loading historical data...
Loading historical data...
Loading historical data...
Loading historical data...
Loading historical data...
Loading historical data...
Loading historical data...

Documentation

Showing up to 5 results
|